Location: Bogis-Bossey
(46.3500°N, 6.1667°E)
Time: 17:25:38
(UTC+00:00)

Meteor 2-13 Rocket - Pass Details

Date: 17 August 2022
Orbit: 936 x 958 km, 82.5° (Epoch: 01 October)

Event Time Altitude Azimuth Distance (km) Brightness Sun altitude
Exits shadow 22:06:47 70° 186° (S) 1,007 4.3 -26.9°
Maximum altitude 22:07:35 89° 101° (E) 953 4.3 -27.0°
Drops below altitude 10° 22:13:42 10° 9° (N) 2,669 7.5 -27.4°
Sets 22:16:11 0° 10° (N) 3,615 8.3 -27.6°
